FW2321 Weather Reports


Display with metric or nautical units.
time (UTC)temp
F
wind
direction
speed
MPH
gust
MPH
rain 1hr
in
rain 24hr
in
rain mn
in
humidity
%
barometer
mb
20211020121630 44 0 0.0 0.0 0.00 0.00 0.00 96 1016.7
20211020121040 44 0 0.0 1.0 0.00 0.00 0.00 95 1016.7
20211020120535 44 0 0.0 1.0 0.00 0.00 0.00 95 1016.7
20211020120054 44 0 0.0 0.0 0.00 0.00 0.00 95 1016.7
20211020115534 44 0 0.0 0.0 0.00 0.00 0.00 95 1016.7
20211020115036 44 0 0.0 0.0 0.00 0.00 0.00 95 1016.8
20211020114616 44 0 0.0 0.0 0.00 0.00 0.00 95 1016.7
20211020114036 44 0 0.0 1.0 0.00 0.00 0.00 95 1016.7
20211020113540 44 0 0.0 1.0 0.00 0.00 0.00 95 1016.8
20211020113054 44 0 0.0 1.0 0.00 0.00 0.00 94 1016.8
20211020112536 44 0 0.0 0.0 0.00 0.00 0.00 94 1016.8
20211020112038 44 0 0.0 0.0 0.00 0.00 0.00 94 1016.9
20211020111551 44 0 0.0 0.0 0.00 0.00 0.00 94 1017.0
20211020111034 45 0 0.0 0.0 0.00 0.00 0.00 93 1017.1
20211020110535 45 0 0.0 0.0 0.00 0.00 0.00 93 1017.1
20211020110053 45 0 0.0 0.0 0.00 0.00 0.00 93 1017.3
20211020105534 45 0 0.0 0.0 0.00 0.00 0.00 93 1017.3
20211020105043 45 0 0.0 0.0 0.00 0.00 0.00 92 1017.2
20211020104604 46 0 0.0 0.0 0.00 0.00 0.00 92 1017.2
20211020104040 46 0 0.0 0.0 0.00 0.00 0.00 92 1017.1
20211020103538 46 0 0.0 0.0 0.00 0.00 0.00 92 1017.2
20211020103125 46 0 0.0 0.0 0.00 0.00 0.00 91 1017.1
20211020102536 47 0 0.0 0.0 0.00 0.00 0.00 91 1017.0
20211020102042 47 0 0.0 0.0 0.00 0.00 0.00 91 1017.0
20211020101620 47 0 0.0 0.0 0.00 0.00 0.00 91 1017.1
20211020101042 47 0 0.0 0.0 0.00 0.00 0.00 90 1017.0
20211020100534 48 0 0.0 0.0 0.00 0.00 0.00 90 1017.1
20211020100147 48 0 0.0 0.0 0.00 0.00 0.00 89 1017.1
20211020095534 48 0 0.0 0.0 0.00 0.00 0.00 89 1017.1
20211020095037 49 0 0.0 0.0 0.00 0.00 0.00 88 1017.1
20211020094625 49 0 0.0 0.0 0.00 0.00 0.00 88 1017.1
20211020094034 49 0 0.0 0.0 0.00 0.00 0.00 87 1017.0
20211020093545 50 0 0.0 0.0 0.00 0.00 0.00 88 1017.0
20211020093132 50 0 0.0 0.0 0.00 0.00 0.00 87 1017.0
20211020092533 50 0 0.0 1.0 0.00 0.00 0.00 87 1017.2
20211020092045 51 0 0.0 1.0 0.00 0.00 0.00 86 1017.1
20211020091610 51 0 0.0 0.0 0.00 0.00 0.00 85 1017.1
20211020091036 51 0 0.0 0.0 0.00 0.00 0.00 85 1017.1
20211020090546 51 0 0.0 0.0 0.00 0.00 0.00 84 1017.1
20211020090218 52 0 0.0 0.0 0.00 0.00 0.00 84 1017.1
20211020085537 52 0 0.0 1.0 0.00 0.00 0.00 83 1017.2
20211020085036 52 0 0.0 1.0 0.00 0.00 0.00 83 1017.1
20211020084632 52 0 0.0 1.0 0.00 0.00 0.00 82 1017.2
20211020084035 53 0 0.0 1.0 0.00 0.00 0.00 82 1017.2
20211020083534 53 0 0.0 2.0 0.00 0.00 0.00 81 1017.3
20211020083059 53 0 0.0 2.0 0.00 0.00 0.00 81 1017.2
20211020082545 53 0 0.0 3.0 0.00 0.00 0.00 80 1017.1
20211020082050 53 224 0.0 3.0 0.00 0.00 0.00 80 1017.2
20211020081554 53 225 1.0 3.0 0.00 0.00 0.00 80 1017.1
20211020081040 53 225 1.0 3.0 0.00 0.00 0.00 80 1017.0
20211020080546 53 225 1.0 3.0 0.00 0.00 0.00 80 1017.1
20211020080120 53 225 1.0 3.0 0.00 0.00 0.00 80 1017.3
20211020075535 53 225 1.0 3.0 0.00 0.00 0.00 80 1017.4
20211020075107 53 223 1.0 3.0 0.00 0.00 0.00 79 1017.3
20211020074619 54 223 1.0 4.0 0.00 0.00 0.00 79 1017.2
20211020074044 54 223 1.0 4.0 0.00 0.00 0.00 79 1017.2
20211020073535 54 227 1.0 5.0 0.00 0.00 0.00 78 1017.3
20211020073132 54 227 1.0 5.0 0.00 0.00 0.00 78 1017.3
20211020072537 54 196 0.0 3.0 0.00 0.00 0.00 77 1017.3
20211020072034 54 0 0.0 4.0 0.00 0.00 0.00 77 1017.4
20211020071611 55 0 1.0 4.0 0.00 0.00 0.00 76 1017.3
20211020071036 55 216 1.0 3.0 0.00 0.00 0.00 76 1017.3
20211020070544 55 216 1.0 3.0 0.00 0.00 0.00 75 1017.3
20211020070112 55 0 0.0 3.0 0.00 0.00 0.00 75 1017.3
20211020065534 55 214 1.0 4.0 0.00 0.00 0.00 75 1017.2
20211020065038 55 0 1.0 4.0 0.00 0.00 0.00 75 1017.2
20211020064709 56 218 1.0 4.0 0.00 0.00 0.00 74 1017.2
20211020064034 56 217 2.0 4.0 0.00 0.00 0.00 74 1017.1
20211020063534 56 236 1.0 5.0 0.00 0.00 0.00 74 1017.2
20211020063121 56 246 2.0 5.0 0.00 0.00 0.00 73 1017.2
20211020062538 56 209 2.0 7.0 0.00 0.00 0.00 73 1017.0
20211020062034 56 217 2.0 7.0 0.00 0.00 0.00 73 1017.1
20211020061628 56 205 2.0 6.0 0.00 0.00 0.00 73 1017.2
20211020061033 56 222 2.0 5.0 0.00 0.00 0.00 74 1017.3
20211020060545 56 209 1.0 5.0 0.00 0.00 0.00 73 1017.3
20211020060104 57 201 1.0 5.0 0.00 0.00 0.00 73 1017.4
20211020055541 57 207 1.0 5.0 0.00 0.00 0.00 73 1017.3
20211020055033 56 221 2.0 8.0 0.00 0.00 0.00 73 1017.4
20211020054556 56 222 3.0 8.0 0.00 0.00 0.00 73 1017.3
20211020054045 56 221 2.0 5.0 0.00 0.00 0.00 74 1017.3
20211020053536 56 221 2.0 5.0 0.00 0.00 0.00 74 1017.3
20211020053100 55 215 1.0 4.0 0.00 0.00 0.00 74 1017.4
20211020052536 55 215 1.0 4.0 0.00 0.00 0.00 75 1017.2
20211020052033 54 215 1.0 4.0 0.00 0.00 0.00 76 1017.3
20211020051646 53 215 1.0 4.0 0.00 0.00 0.00 78 1017.2
20211020051100 53 213 0.0 4.0 0.00 0.00 0.00 80 1017.2
20211020050541 52 212 1.0 4.0 0.00 0.00 0.00 81 1017.3
20211020050122 52 192 1.0 3.0 0.00 0.00 0.00 82 1017.3
20211020045541 52 192 1.0 3.0 0.00 0.00 0.00 83 1017.3
20211020045035 52 192 1.0 2.0 0.00 0.00 0.00 82 1017.4
20211020044548 52 192 0.0 2.0 0.00 0.00 0.00 82 1017.4
20211020044038 51 0 0.0 3.0 0.00 0.00 0.00 82 1017.5
20211020043536 51 192 0.0 3.0 0.00 0.00 0.00 82 1017.4
20211020043051 51 192 1.0 4.0 0.00 0.00 0.00 83 1017.4
20211020042535 51 192 1.0 4.0 0.00 0.00 0.00 83 1017.4
20211020042039 50 192 1.0 3.0 0.00 0.00 0.00 84 1017.4
20211020041621 50 191 1.0 3.0 0.00 0.00 0.00 85 1017.3
20211020041036 50 191 1.0 3.0 0.00 0.00 0.00 85 1017.2
20211020040536 50 192 1.0 3.0 0.00 0.00 0.00 85 1017.2
20211020040052 50 192 1.0 2.0 0.00 0.00 0.00 85 1017.3
20211020035535 51 192 1.0 2.0 0.00 0.00 0.00 84 1017.2
20211020035041 51 192 1.0 2.0 0.00 0.00 0.00 83 1017.4
20211020034625 51 192 0.0 1.0 0.00 0.00 0.00 82 1017.4
20211020034036 52 0 0.0 0.0 0.00 0.00 0.00 79 1017.4
20211020033533 52 0 0.0 0.0 0.00 0.00 0.00 78 1017.4
20211020033135 53 0 0.0 0.0 0.00 0.00 0.00 78 1017.4
20211020032533 53 0 0.0 0.0 0.00 0.00 0.00 77 1017.4
20211020032036 54 0 0.0 1.0 0.00 0.00 0.00 76 1017.4
20211020031559 54 0 0.0 1.0 0.00 0.00 0.00 75 1017.4
20211020031036 55 0 0.0 2.0 0.00 0.00 0.00 74 1017.3
20211020030535 55 0 0.0 2.0 0.00 0.00 0.00 73 1017.3
20211020030114 56 0 0.0 2.0 0.00 0.00 0.00 73 1017.1
20211020025551 56 192 0.0 2.0 0.00 0.00 0.00 72 1017.2
20211020025103 56 0 0.0 3.0 0.00 0.00 0.00 72 1017.2
20211020024616 56 0 1.0 3.0 0.00 0.00 0.00 72 1017.0
20211020024042 57 192 1.0 4.0 0.00 0.00 0.00 72 1017.2
20211020023548 56 192 2.0 5.0 0.00 0.00 0.00 72 1017.0
20211020023137 56 198 2.0 6.0 0.00 0.00 0.00 72 1017.1
20211020022536 56 186 2.0 6.0 0.00 0.00 0.00 72 1017.0
20211020022039 56 186 1.0 4.0 0.00 0.00 0.00 73 1017.0
20211020021548 56 197 1.0 4.0 0.00 0.00 0.00 73 1016.8
20211020021037 56 188 1.0 4.0 0.00 0.00 0.00 72 1016.9
20211020020540 57 188 1.0 4.0 0.00 0.00 0.00 71 1016.7
20211020020112 57 209 1.0 2.0 0.00 0.00 0.00 70 1016.9
20211020015538 58 209 0.0 3.0 0.00 0.00 0.00 69 1016.7
20211020015039 58 0 1.0 5.0 0.00 0.00 0.00 69 1016.9
20211020014638 58 215 2.0 6.0 0.00 0.00 0.00 69 1016.8
20211020014034 58 213 3.0 7.0 0.00 0.00 0.00 70 1016.7
20211020013534 57 219 2.0 7.0 0.00 0.00 0.00 71 1016.7
20211020013200 56 198 2.0 5.0 0.00 0.00 0.00 72 1016.6
20211020012540 55 189 2.0 4.0 0.00 0.00 0.00 74 1016.6
20211020012039 55 182 1.0 4.0 0.00 0.00 0.00 75 1016.6
20211020011639 55 185 0.0 2.0 0.00 0.00 0.00 75 1016.6
20211020011035 56 185 0.0 2.0 0.00 0.00 0.00 74 1016.6
20211020010550 56 185 1.0 2.0 0.00 0.00 0.00 71 1016.6
20211020010118 57 185 0.0 2.0 0.00 0.00 0.00 70 1016.5
20211020005540 57 0 0.0 2.0 0.00 0.00 0.00 69 1016.6
20211020005040 57 0 0.0 2.0 0.00 0.00 0.00 68 1016.6
20211020004553 57 0 0.0 3.0 0.00 0.00 0.00 68 1016.6
20211020004036 58 185 0.0 3.0 0.00 0.00 0.00 67 1016.6
20211020003536 58 185 1.0 3.0 0.00 0.00 0.00 67 1016.6
20211020003153 58 185 1.0 3.0 0.00 0.00 0.00 66 1016.5
20211020002538 59 185 0.0 3.0 0.00 0.00 0.00 65 1016.5
20211020002037 59 185 0.0 3.0 0.00 0.00 0.00 65 1016.5
20211020001711 60 0 0.0 2.0 0.00 0.00 0.00 63 1016.5
20211020001033 60 0 0.0 2.0 0.00 0.00 0.00 62 1016.5
20211020000539 61 0 0.0 2.0 0.00 0.00 0.00 62 1016.6
20211020000204 61 0 0.0 1.0 0.00 0.00 0.00 61 1016.5
20211019235536 62 215 0.0 2.0 0.00 0.00 0.00 59 1016.4
20211019235034 62 0 0.0 3.0 0.00 0.00 0.00 59 1016.6
20211019234621 63 215 1.0 3.0 0.00 0.00 0.00 58 1016.5
20211019234035 63 215 1.0 4.0 0.00 0.00 0.00 57 1016.4
20211019233539 63 216 1.0 4.0 0.00 0.00 0.00 57 1016.4
20211019233054 63 199 2.0 4.0 0.00 0.00 0.00 56 1016.4
20211019232533 64 203 2.0 3.0 0.00 0.00 0.00 55 1016.3
20211019232048 64 209 1.0 3.0 0.00 0.00 0.00 55 1016.3
20211019231623 65 209 1.0 4.0 0.00 0.00 0.00 54 1016.3
20211019231038 65 210 2.0 4.0 0.00 0.00 0.00 54 1016.3
20211019230539 66 202 2.0 6.0 0.00 0.00 0.00 54 1016.2
20211019230120 66 211 3.0 8.0 0.00 0.00 0.00 54 1016.2
20211019225535 66 211 3.0 8.0 0.00 0.00 0.00 53 1016.2
20211019225033 67 196 4.0 8.0 0.00 0.00 0.00 52 1016.1
20211019224624 67 209 3.0 8.0 0.00 0.00 0.00 52 1016.0
20211019224036 67 212 3.0 8.0 0.00 0.00 0.00 51 1016.0
20211019223536 67 196 4.0 9.0 0.00 0.00 0.00 51 1015.9
20211019223113 68 195 3.0 9.0 0.00 0.00 0.00 50 1015.9
20211019222551 68 195 4.0 8.0 0.00 0.00 0.00 49 1015.9
20211019222035 68 205 4.0 8.0 0.00 0.00 0.00 48 1015.9
20211019221729 68 200 4.0 11.0 0.00 0.00 0.00 48 1015.8
20211019221035 69 215 5.0 11.0 0.00 0.00 0.00 47 1015.8
20211019220602 69 210 6.0 13.0 0.00 0.00 0.00 46 1015.8
20211019220147 69 215 6.0 13.0 0.00 0.00 0.00 45 1015.8
20211019215537 70 189 5.0 14.0 0.00 0.00 0.00 46 1015.8
20211019215056 70 213 4.0 14.0 0.00 0.00 0.00 46 1015.8
20211019214632 70 174 5.0 11.0 0.00 0.00 0.00 46 1015.8
20211019214042 70 192 5.0 13.0 0.00 0.00 0.00 45 1015.8
20211019213535 70 199 7.0 13.0 0.00 0.00 0.00 44 1015.8
20211019213146 70 206 7.0 13.0 0.00 0.00 0.00 45 1015.8
20211019212546 71 176 7.0 13.0 0.00 0.00 0.00 47 1015.8
20211019212036 71 170 6.0 13.0 0.00 0.00 0.00 47 1015.8
20211019211627 71 212 4.0 12.0 0.00 0.00 0.00 46 1015.8
20211019211038 71 240 5.0 12.0 0.00 0.00 0.00 46 1015.8
20211019210545 71 196 4.0 11.0 0.00 0.00 0.00 47 1015.9
20211019210113 71 210 5.0 11.0 0.00 0.00 0.00 45 1015.9
20211019205550 71 198 4.0 12.0 0.00 0.00 0.00 48 1015.9
20211019205035 71 257 5.0 13.0 0.00 0.00 0.00 48 1016.0
20211019204633 71 244 5.0 13.0 0.00 0.00 0.00 48 1016.0
20211019204047 71 185 4.0 11.0 0.00 0.00 0.00 50 1016.0
20211019203538 71 209 5.0 13.0 0.00 0.00 0.00 48 1016.1
20211019203211 71 195 4.0 13.0 0.00 0.00 0.00 47 1016.1
20211019202539 71 223 4.0 9.0 0.00 0.00 0.00 48 1016.2
20211019202037 71 195 5.0 9.0 0.00 0.00 0.00 51 1016.1
20211019201556 72 179 4.0 10.0 0.00 0.00 0.00 52 1016.2
20211019201035 71 140 4.0 13.0 0.00 0.00 0.00 50 1016.3
20211019200538 71 173 5.0 14.0 0.00 0.00 0.00 49 1016.3
20211019200123 71 201 7.0 14.0 0.00 0.00 0.00 50 1016.2
20211019195535 72 225 5.0 11.0 0.00 0.00 0.00 49 1016.2
20211019195042 71 228 5.0 11.0 0.00 0.00 0.00 50 1016.2
20211019194621 71 275 6.0 12.0 0.00 0.00 0.00 49 1016.3
20211019194034 71 215 5.0 15.0 0.00 0.00 0.00 46 1016.2
20211019193536 71 207 7.0 15.0 0.00 0.00 0.00 43 1016.2
20211019193206 71 200 4.0 12.0 0.00 0.00 0.00 50 1016.1
20211019192535 71 277 6.0 17.0 0.00 0.00 0.00 49 1016.3
20211019192038 71 194 7.0 17.0 0.00 0.00 0.00 48 1016.3
20211019191618 71 207 8.0 16.0 0.00 0.00 0.00 48 1016.4
20211019191035 71 209 8.0 16.0 0.00 0.00 0.00 51 1016.4
20211019190537 71 214 7.0 12.0 0.00 0.00 0.00 51 1016.4
20211019190109 71 208 3.0 11.0 0.00 0.00 0.00 51 1016.4
20211019185537 71 232 5.0 17.0 0.00 0.00 0.00 52 1016.6
20211019185044 71 224 6.0 17.0 0.00 0.00 0.00 54 1016.6
20211019184710 71 206 4.0 12.0 0.00 0.00 0.00 56 1016.6
20211019184038 71 264 5.0 12.0 0.00 0.00 0.00 52 1016.7
20211019183537 71 215 5.0 15.0 0.00 0.00 0.00 51 1016.8
20211019183125 71 179 6.0 15.0 0.00 0.00 0.00 53 1016.7
20211019182538 71 219 4.0 12.0 0.00 0.00 0.00 50 1016.8
20211019182035 71 220 6.0 13.0 0.00 0.00 0.00 51 1017.0
20211019181637 71 278 7.0 13.0 0.00 0.00 0.00 50 1017.1
20211019181037 71 210 6.0 12.0 0.00 0.00 0.00 52 1017.2
20211019180535 70 186 4.0 12.0 0.00 0.00 0.00 53 1017.2
20211019180243 69 195 5.0 12.0 0.00 0.00 0.00 50 1017.4
20211019175545 70 250 4.0 13.0 0.00 0.00 0.00 51 1017.5
20211019175037 70 222 5.0 14.0 0.00 0.00 0.00 51 1017.6
20211019174608 71 165 6.0 14.0 0.00 0.00 0.00 51 1017.6
20211019174037 71 205 6.0 14.0 0.00 0.00 0.00 52 1017.6
20211019173537 71 207 5.0 14.0 0.00 0.00 0.00 52 1017.7
20211019173112 71 253 2.0 11.0 0.00 0.00 0.00 55 1017.8
20211019172534 71 210 4.0 11.0 0.00 0.00 0.00 55 1017.9
20211019172035 71 267 2.0 9.0 0.00 0.00 0.00 55 1017.8
20211019171641 70 180 2.0 7.0 0.00 0.00 0.00 55 1017.9
20211019171034 70 267 2.0 7.0 0.00 0.00 0.00 55 1018.0
20211019170536 69 262 2.0 7.0 0.00 0.00 0.00 60 1018.1
20211019170206 69 275 1.0 6.0 0.00 0.00 0.00 59 1018.0
20211019165535 68 238 3.0 6.0 0.00 0.00 0.00 55 1018.1
20211019165104 69 292 2.0 8.0 0.00 0.00 0.00 56 1018.1
20211019164638 69 261 3.0 8.0 0.00 0.00 0.00 57 1018.2
20211019164035 69 234 2.0 8.0 0.00 0.00 0.00 56 1018.1
20211019163534 69 234 4.0 8.0 0.00 0.00 0.00 56 1018.2
20211019163114 69 184 3.0 8.0 0.00 0.00 0.00 58 1018.2
20211019162534 69 292 2.0 7.0 0.00 0.00 0.00 58 1018.2
20211019162038 69 273 2.0 7.0 0.00 0.00 0.00 61 1018.2
20211019161618 68 285 2.0 7.0 0.00 0.00 0.00 62 1018.3
20211019161036 68 296 2.0 6.0 0.00 0.00 0.00 62 1018.2
20211019160544 68 232 2.0 10.0 0.00 0.00 0.00 64 1018.3
20211019160116 67 303 2.0 10.0 0.00 0.00 0.00 63 1018.4
20211019155541 67 255 1.0 6.0 0.00 0.00 0.00 67 1018.4
20211019155043 67 225 2.0 4.0 0.00 0.00 0.00 66 1018.3
20211019154626 66 269 1.0 4.0 0.00 0.00 0.00 68 1018.3
20211019154037 65 249 1.0 4.0 0.00 0.00 0.00 68 1018.4
20211019153537 65 290 1.0 5.0 0.00 0.00 0.00 71 1018.3
20211019153143 65 263 2.0 5.0 0.00 0.00 0.00 70 1018.4
20211019152538 65 209 2.0 5.0 0.00 0.00 0.00 67 1018.3
20211019152039 64 187 2.0 6.0 0.00 0.00 0.00 71 1018.4
20211019151643 64 187 2.0 6.0 0.00 0.00 0.00 69 1018.4
20211019151036 63 234 1.0 5.0 0.00 0.00 0.00 73 1018.4
20211019150555 62 222 0.0 4.0 0.00 0.00 0.00 77 1018.4
20211019150209 61 0 1.0 4.0 0.00 0.00 0.00 76 1018.3
20211019145539 60 220 0.0 2.0 0.00 0.00 0.00 80 1018.3
20211019145034 59 0 0.0 2.0 0.00 0.00 0.00 81 1018.4
20211019144628 58 0 0.0 2.0 0.00 0.00 0.00 83 1018.3
20211019144039 57 0 0.0 2.0 0.00 0.00 0.00 87 1018.4
20211019143535 56 220 0.0 2.0 0.00 0.00 0.00 89 1018.4
20211019143141 55 219 0.0 4.0 0.00 0.00 0.00 90 1018.4
20211019142537 54 0 1.0 4.0 0.00 0.00 0.00 92 1018.4
20211019142124 52 215 2.0 4.0 0.00 0.00 0.00 98 1018.4
20211019141614 51 204 0.0 1.0 0.00 0.00 0.00 100 1018.3
20211019141036 51 0 0.0 1.0 0.00 0.00 0.00 100 1018.4
20211019140604 50 0 0.0 1.0 0.00 0.00 0.00 100 1018.4
20211019140130 50 204 0.0 0.0 0.00 0.00 0.00 100 1018.4
20211019135537 49 0 0.0 1.0 0.00 0.00 0.00 100 1018.4
20211019135043 49 0 0.0 1.0 0.00 0.00 0.00 100 1018.4
20211019134647 48 0 0.0 1.0 0.00 0.00 0.00 100 1018.6
20211019134038 47 0 0.0 1.0 0.00 0.00 0.00 100 1018.5
20211019133538 46 0 0.0 1.0 0.00 0.00 0.00 100 1018.4
20211019133052 45 0 0.0 0.0 0.00 0.00 0.00 100 1018.5
20211019132534 44 0 0.0 0.0 0.00 0.00 0.00 100 1018.4
20211019132043 42 0 0.0 1.0 0.00 0.00 0.00 100 1018.4
20211019131550 41 0 0.0 1.0 0.00 0.00 0.00 100 1018.4
20211019131100 40 0 0.0 1.0 0.00 0.00 0.00 99 1018.4
20211019130535 40 0 0.0 0.0 0.00 0.00 0.00 99 1018.4
20211019130100 40 0 0.0 1.0 0.00 0.00 0.00 99 1018.3
20211019125539 39 0 0.0 1.0 0.00 0.00 0.00 99 1018.2
20211019125050 39 0 0.0 0.0 0.00 0.00 0.00 99 1018.1
20211019124611 39 0 0.0 0.0 0.00 0.00 0.00 99 1018.1
20211019124047 39 0 0.0 0.0 0.00 0.00 0.00 98 1018.2
20211019123543 39 0 0.0 0.0 0.00 0.00 0.00 98 1018.0
20211019123050 39 0 0.0 0.0 0.00 0.00 0.00 99 1018.0
20211019122540 39 0 0.0 0.0 0.00 0.00 0.00 98 1018.0
20211019122056 39 0 0.0 0.0 0.00 0.00 0.00 98 1018.2